Regional Weather Roundup
Issued by NWS

Home | Current Version | Previous Version | Graphics & Text | Print | Product List | Glossary On
Versions: 1 2 3 4 5 6 7 8 9 10 11 12 13 14 15 16 17 18 19 20 21 22 23 24 25 26 27 28 29 30 31 32 33 34 35 36 37 38 39 40 41 42 43 44 45 46 47 48 49 50
000
ASUS43 KIND 041809
RWRIN

WEATHER ROUNDUP FOR INDIANA
NATIONAL WEATHER SERVICE INDIANAPOLIS IN
200 PM EDT SAT JUL 04 2015

NOTE: "FAIR" INDICATES FEW OR NO CLOUDS BELOW 12,000 FEET WITH NO
SIGNIFICANT WEATHER AND/OR OBSTRUCTIONS TO VISIBILITY.

* - STATION DOES NOT REPORT WEATHER SUCH AS PRECIPITATION OR FOG.

+ - STATION NOT QUALITY CONTROLLED BY THE NATIONAL WEATHER SERVICE.
    USE DATA WITH CAUTION...ESPECIALLY DEWPOINT AND RELATIVE
    HUMIDITY OBSERVATIONS.

INZ001>003-010>013-019-020-041900-
NORTHWEST INDIANA

CITY           SKY/WX    TMP DP  RH WIND       PRES   REMARKS
GARY /AIRPORT/ MOSUNNY  N/A N/A N/A NE9       30.02S
KNOX *+        SUNNY     77  55  47 NW3       30.02R
LA PORTE +     SUNNY     78  57  49 CALM      30.03S
6HR MIN TEMP:  60; 6HR MAX TEMP:  78;

MICHIGAN CITY+ SUNNY     77  55  47 N6        30.02S
MONTICELLO +   MOSUNNY   76  61  60 CALM      30.02S
6HR MIN TEMP:  58; 6HR MAX TEMP:  76;

RENSSELAER +   MOSUNNY   77  59  53 CALM      30.03S
VALPARAISO     PTSUNNY   77  59  53 MISG      30.03S
6HR MIN TEMP:  59; 6HR MAX TEMP:  78;


$$

LMZ046-743>745-041900-
SOUTHERN LAKE MICHIGAN

STATION/POSITION TIME  TEMP    WIND        PRES    WAVE
                       AIR SEA DIR/SP/G            HT
                 (UTC) (F)     (DEG/KT/KT) (MB)    (FT)
BURNS HARBOR     1800   69      20/  6/  6 1016.9F
MICHIGAN CITY    1800   71     270/  3/  4   N/A
5NW MICH CITY    1800   68 66  330/  2/  4   N/A     0

$$

INZ004-005-014>016-021>024-041900-
NORTH CENTRAL INDIANA

CITY           SKY/WX    TMP DP  RH WIND       PRES   REMARKS
ELKHART        SUNNY     77  55  47 W5        30.02S
GOSHEN         SUNNY     76  60  57 W7        30.02S
6HR MIN TEMP:  57; 6HR MAX TEMP:  76;

LOGANSPORT +   SUNNY     77  52  41 NW3       30.04S
PERU/GRISSOM   MOSUNNY   76  58  55 N2        30.02S
6HR MIN TEMP:  60; 6HR MAX TEMP:  76;

ROCHESTER +    MOSUNNY   79  55  44 CALM      30.03S
SOUTH BEND     SUNNY     77  57  50 W5        30.02F
6HR MIN TEMP:  59; 6HR MAX TEMP:  77;

WARSAW +         N/A     75  57  53 NW6       30.03S

$$

INZ006>009-017-018-025>027-041900-
NORTHEAST INDIANA

CITY           SKY/WX    TMP DP  RH WIND       PRES   REMARKS
ANGOLA *+        N/A     79  72  78 VRB5      30.02R
AUBURN +       MOSUNNY   77  52  41 CALM      30.03S
FORT WAYNE     CLOUDY    76  57  51 W3        30.03S
6HR MIN TEMP:  61; 6HR MAX TEMP:  78;

HUNTINGTON +   MOSUNNY   76  57  50 SW3       30.02S
6HR MIN TEMP:  60; 6HR MAX TEMP:  77;


$$

INZ028-029-035-036-043>045-051>053-041900-
WEST CENTRAL INDIANA

CITY           SKY/WX    TMP DP  RH WIND       PRES   REMARKS
CRAWFORDSVL +  SUNNY     75  53  46 NW5       30.03F
6HR MIN TEMP:  59; 6HR MAX TEMP:  75;

GREENCASTLE +  PTSUNNY   77  57  50 W3        30.04S
LAFAYETTE      SUNNY     77  59  53 VRB3      30.02F
6HR MIN TEMP:  59; 6HR MAX TEMP:  77;

TERRE HAUTE    PTSUNNY   78  61  55 CALM      30.02F
6HR MIN TEMP:  65; 6HR MAX TEMP:  80;


$$

INZ030>032-037>040-046>048-054>057-064-065-041900-
CENTRAL INDIANA

CITY           SKY/WX    TMP DP  RH WIND       PRES   REMARKS
CP ATTERBURY + PTSUNNY   77  63  61 NW3       30.03F
COLUMBUS       PTSUNNY   77  59  53 NW5       30.02F
FISHERS *+     SUNNY     75  63  64 NW3       30.03F
FRANKFORT +    MOSUNNY   78  60  54 W3        30.05F
GREENWOOD *+   MOSUNNY   75  59  57 W3        30.03F
INDIANAPOLIS   MOSUNNY   78  57  48 NW3       30.01F
6HR MIN TEMP:  65; 6HR MAX TEMP:  79;

-EAGLE CREEK   SUNNY     77  56  48 CALM      30.02S
6HR MIN TEMP:  64; 6HR MAX TEMP:  77;

KOKOMO *+      MOSUNNY   77  57  50 NE3       30.03S
6HR MIN TEMP:  61; 6HR MAX TEMP:  79;

MARION +       SUNNY     74  56  52 CALM      30.04S
MT COMFORT *+  SUNNY     79  46  31 CALM      30.04S
SHELBYVILLE    MOSUNNY   79  62  56 VRB6      30.02S
6HR MIN TEMP:  67; 6HR MAX TEMP:  80;

ZIONSVILLE +   MOSUNNY   77  58  51 CALM      30.04F
6HR MIN TEMP:  61; 6HR MAX TEMP:  78;


$$

INZ033-034-041-042-049-050-058-059-041900-
EAST CENTRAL INDIANA

CITY           SKY/WX    TMP DP  RH WIND       PRES   REMARKS
MUNCIE         MOSUNNY   77  58  51 W6        30.03S
6HR MIN TEMP:  62; 6HR MAX TEMP:  78;


$$

INZ060-061-067>069-081>083-085>088-041900-
SOUTHWEST INDIANA

CITY           SKY/WX    TMP DP  RH WIND       PRES   REMARKS
EVANSVILLE     PTSUNNY   80  66  62 NE6       30.01S
6HR MIN TEMP:  69; 6HR MAX TEMP:  81;

HUNTINGBURG *+ PTSUNNY   79  66  65 CALM      30.01S
WASHINGTON +   PTSUNNY   79  63  57 NE3       30.00F
6HR MIN TEMP:  64; 6HR MAX TEMP:  79; 6HR PCP:  0.01;


$$

INZ062-063-066-070>080-084-089>092-041900-
SOUTH CENTRAL AND SOUTHEAST INDIANA

CITY           SKY/WX    TMP DP  RH WIND       PRES   REMARKS
BLOOMINGTON    MOSUNNY   80  62  54 CALM      30.02F
6HR MIN TEMP:  66; 6HR MAX TEMP:  80;

MADISON *+     PTSUNNY   79  61  53 CALM      30.04S
NORTH VERNON + CLOUDY    79  63  57 N5        30.03S
SEYMOUR +      PTSUNNY   81  64  57 NW5       30.01F

$$




USA.gov is the U.S. government's official web portal to all federal, state and local government web resources and services.